Location: Piolenc
(44.1794°N, 4.7641°E)
Time: 01:35:13
(UTC+00:00)

Cosmos 2034 Rocket - Pass Details

Date: 27 January 2021
Orbit: 957 x 1001 km, 82.9° (Epoch: 27 February)

Event Time Altitude Azimuth Distance (km) Brightness Sun altitude
Rises 04:47:07 0° 193° (SSW) 3,711 6.9 -24.5°
Reaches altitude 10° 04:49:39 10° 195° (SSW) 2,765 6.2 -24.1°
Maximum altitude 04:56:00 71° 279° (W) 1,055 3.9 -22.9°
Drops below altitude 10° 05:02:22 10° 4° (N) 2,768 6.4 -21.8°
Sets 05:04:54 0° 7° (N) 3,716 7.1 -21.3°
